Find Siwei Gaojing 2-04

NORAD ID: 62080 Int'l Des: 2024-218 Owner: SIWEI Country: CN operational
LEOCIRCULARRETROGRADESSO

リアルタイム位置

3D地球を読み込み中...

Siwei Gaojing 2-04について

説明を読み込み中...

次回通過

Passes for default location (London). Set your location on the main map for personalized predictions.

高度履歴

Loading altitude history...

軌道要素

1 62080U 24218C 26105.50018952 -.00000002 00000-0 30524-5 0 9999
2 62080 97.4392 113.7255 0001376 112.7290 247.4090 15.19720159 76925
Epoch: Apr 15, 2026 • Age: 29 hours

現在のステータス

高度 509.6 km
速度 7.61 km/s
衛星直下点 -1.06°S, 168.71°W
打ち上げ日 Nov 24, 2024
運用期間 1.3 years
タイプ other

技術仕様

分類 Payload
質量 600.00 kg
乾燥質量 500.00 kg
総質量 600.00 kg
長さ 0.50 m
直径 0.50 m
スパン 0.50 m
形状 Box
製造者 DFHZ
バスタイプ Siwei
フェーズステータス In Orbit
所有者/国 SIWEI/CN

Most Searched